Probability
14 14 13 13 13 12 9 6 3 1 1 3 4 6 12 13 8 7 7 4 1 0 0 0 0 0 0 0 1 2 2 1 0 0 0 0 0 0
14 14 13 13 13 11 9 7 6 4 3 4 7 8 9 9 8 10 11 7 2 0 0 0 0 0 0 0 0 1 1 0 0 0 0 0 0 0
14 15 14 14 14 14 11 9 9 8 5 6 10 12 10 9 11 15 14 8 3 1 0 0 0 0 0 0 0 0 0 0 0 0 0 0 0 0
16 16 16 15 16 16 14 12 11 10 8 7 10 14 14 14 16 18 14 8 5 3 1 0 0 0 0 0 0 0 0 0 0 0 0 0 0 0
17 17 16 15 16 16 16 15 13 11 11 9 8 11 13 14 17 17 13 10 7 5 2 1 0 0 0 0 0 0 0 0 0 0 0 0 0 0
19 17 15 14 14 13 15 15 13 12 12 9 7 8 10 13 15 14 13 12 10 8 6 4 1 0 0 0 0 0 0 0 0 0 0 0 0 0
19 17 13 11 10 10 10 10 10 10 11 10 8 8 10 11 11 10 10 9 9 9 8 6 3 1 1 1 0 0 0 0 0 0 0 0 0 0
17 15 12 9 8 7 6 4 4 6 9 9 8 9 10 10 9 7 7 6 6 7 6 5 5 3 2 2 1 0 0 0 0 0 0 0 0 0
15 15 13 10 9 8 5 3 2 3 5 6 6 6 7 8 9 8 6 6 6 5 4 4 4 4 3 3 1 0 0 0 0 0 0 0 0 0
13 13 12 10 8 8 7 5 4 5 4 4 3 4 4 6 7 8 8 7 7 5 4 3 4 3 3 3 2 1 0 0 0 0 0 0 0 0
8 8 8 8 6 6 6 6 6 6 5 4 3 3 2 2 3 6 7 7 6 5 3 3 3 3 3 3 3 1 1 0 0 0 0 0 0 0
7 6 5 5 4 3 4 6 6 6 6 5 5 4 3 2 2 4 6 7 6 4 3 3 3 3 3 3 3 3 2 1 1 0 0 0 0 0
8 7 6 4 2 1 2 4 4 4 5 5 6 5 5 5 5 5 6 7 7 5 4 3 3 3 2 2 2 2 2 2 1 1 1 0 0 0
7 6 5 4 2 1 1 2 2 2 3 5 5 6 7 7 7 7 7 6 6 5 4 3 2 1 1 1 1 1 1 1 2 2 2 1 0 0
5 4 3 2 1 1 2 2 2 2 4 5 5 6 7 8 7 6 6 5 4 4 3 2 1 0 0 0 0 0 0 1 2 3 2 1 0 0
3 2 2 1 1 1 2 3 4 4 4 4 4 5 6 8 7 6 5 4 3 3 3 3 2 1 1 1 1 0 1 2 3 2 1 0 0 0
3 3 2 3 3 3 3 4 4 4 4 3 3 4 5 7 7 6 4 3 3 3 3 3 3 3 2 2 2 2 2 3 2 1 0 0 0 0
4 4 3 4 4 4 3 3 4 4 4 3 3 3 4 5 6 5 4 3 3 3 3 2 3 3 3 3 3 2 2 2 1 0 0 0 0 0
3 4 4 3 4 3 3 4 4 4 4 3 3 3 4 5 5 4 3 3 3 3 3 3 3 3 3 2 2 1 1 1 0 0 0 0 0 0
2 3 3 3 3 3 2 3 3 2 2 3 3 3 4 4 4 3 3 3 3 3 3 3 3 3 2 1 0 0 0 0 0 0 0 0 0 0
3 3 3 2 2 1 1 1 1 1 2 2 2 2 2 3 3 3 3 3 2 3 3 2 2 2 2 1 0 0 0 0 0 0 0 0 0 0
2 2 1 1 1 0 0 0 0 0 1 2 2 1 1 1 1 1 2 2 2 2 1 1 1 1 1 0 0 0 0 0 0 0 0 0 0 0
1 1 0 0 0 0 0 0 0 0 0 1 1 1 0 0 0 0 1 1 1 1 0 0 0 0 0 0 0 0 0 0 0 0 0 0 0 0
Wind_Speed
4 4 3 3 3 3 2 2 2 3 3 3 1 2 2 2 5 6 5 11 13 12 12 11 11 11 10 10 10 10 10 9 9 9 9 9 9 10
3 3 3 3 3 3 3 3 2 2 3 2 2 2 1 2 5 5 5 9 12 12 12 12 11 11 10 10 10 10 10 9 9 9 9 9 9 9
4 4 3 3 2 3 3 2 2 2 3 4 2 2 2 2 2 3 3 4 5 12 12 12 11 10 10 9 9 9 9 9 9 8 9 9 8 8
3 3 3 3 2 3 3 3 2 2 3 4 3 2 3 3 3 4 4 5 4 8 12 12 11 11 10 9 9 8 8 8 8 8 8 8 8 8
3 3 2 2 2 3 3 3 2 3 2 3 3 2 2 2 2 3 3 2 4 4 7 10 10 10 10 9 9 8 8 8 7 7 7 7 7 7
2 1 1 2 3 3 2 2 3 3 3 2 3 3 3 3 2 2 2 2 3 3 3 5 7 9 10 10 9 8 7 7 7 6 6 6 6 7
1 1 1 1 2 2 2 2 2 2 2 2 3 2 2 2 2 3 3 2 2 2 1 2 3 4 5 7 8 8 8 7 7 7 7 7 7 7
1 1 1 1 2 1 1 1 1 1 2 2 2 2 3 3 3 3 2 2 2 1 1 2 1 2 3 3 6 8 8 8 7 7 7 6 7 7
1 1 2 2 2 2 2 2 2 1 1 1 2 3 4 4 4 4 3 2 2 2 1 2 1 1 1 2 6 7 7 7 7 7 7 7 7 7
1 2 2 3 4 3 2 2 1 1 1 0 1 3 3 3 4 4 3 2 1 2 1 2 1 1 1 1 5 6 6 6 7 7 7 7 7 7
2 3 3 3 4 4 2 1 1 1 1 1 1 1 2 4 4 3 3 2 2 2 2 1 1 2 1 1 2 4 5 5 6 6 6 6 5 5
2 3 5 4 4 4 2 1 2 3 3 2 2 2 2 2 2 1 2 2 2 2 3 2 1 2 1 0 0 2 2 4 5 6 5 5 4 3
2 2 3 4 4 3 2 2 3 4 3 3 2 2 1 1 1 0 0 0 1 1 2 2 2 2 1 2 1 1 1 1 2 2 4 4 4 3
2 2 3 3 3 4 3 4 6 4 2 2 2 2 2 2 2 1 0 0 1 1 1 1 1 1 2 2 2 1 1 1 0 0 1 2 2 2
2 3 3 2 2 2 3 4 4 3 3 3 3 3 2 2 2 2 1 1 1 1 1 1 1 1 1 2 2 2 1 1 1 1 0 0 1 1
2 1 1 2 2 3 3 3 2 3 3 3 3 3 3 3 3 2 2 2 1 1 2 2 2 1 1 2 2 2 2 1 1 2 2 1 2 1
1 1 1 2 2 3 3 3 3 3 3 3 3 3 3 3 3 2 2 2 2 2 2 2 2 2 2 2 2 2 2 2 1 2 2 2 2 2
3 3 3 4 4 4 3 3 3 4 3 3 3 3 3 3 3 3 2 2 2 2 2 2 2 2 2 3 4 3 2 2 2 1 2 2 2 2
5 4 4 4 4 5 4 4 4 4 3 3 3 3 3 3 3 3 3 3 3 3 3 2 3 2 3 3 3 4 3 3 2 2 2 2 2 2
5 5 4 4 4 4 4 4 4 4 4 4 4 4 3 3 3 3 2 3 3 2 3 3 3 3 3 2 2 3 4 2 2 2 2 2 2 2
5 5 4 4 4 4 4 4 4 3 4 4 4 5 4 4 3 3 3 4 3 3 3 2 2 3 2 1 2 1 2 3 3 2 2 2 2 2
5 5 4 4 4 4 4 4 4 5 5 5 5 5 4 4 4 4 4 3 3 3 3 2 2 2 2 2 3 2 2 2 3 3 4 3 2 2
4 4 4 5 5 4 4 5 6 5 5 5 5 5 4 4 3 3 4 4 3 4 4 3 3 3 3 2 2 2 3 3 2 2 3 4 4 4
Wind_Direction
240 236 237 259 266 264 258 245 242 269 273 266 258 228 189 165 177 198 192 195 201 205 210 217 221 222 223 225 225 226 226 229 232 235 237 237 239 242
236 243 243 252 268 275 269 262 242 238 260 262 261 257 245 214 182 204 205 192 199 202 209 214 216 218 219 220 220 219 219 221 225 228 230 231 234 240
244 242 242 256 274 289 290 293 293 275 264 274 271 273 273 274 208 220 203 195 197 203 207 207 208 209 211 213 216 217 217 218 221 225 227 230 233 236
245 256 259 259 255 276 289 288 280 267 258 269 275 268 261 251 228 233 230 224 213 205 202 204 206 208 210 214 214 214 215 216 218 222 225 228 230 233
247 252 255 264 269 267 268 278 283 283 274 275 279 274 265 265 253 257 258 250 246 216 199 205 210 211 211 214 214 212 212 212 212 215 219 223 227 231
255 274 292 284 280 279 278 280 284 293 288 284 280 282 278 272 257 258 266 245 251 247 218 204 203 205 208 210 208 207 207 207 209 213 219 226 231 235
290 311 310 339 339 324 302 303 301 296 299 294 289 296 298 306 290 272 267 264 250 233 221 218 198 201 205 210 210 206 204 207 211 216 220 226 232 237
335 311 285 17 7 19 2 350 332 304 305 297 296 303 306 305 301 287 277 274 272 242 218 250 204 207 204 199 188 188 194 201 208 215 222 229 235 239
0 344 326 358 6 1 355 21 37 31 282 280 305 305 307 313 313 306 296 287 280 294 281 266 254 262 237 175 178 182 188 196 204 214 222 227 233 239
22 17 24 18 9 8 2 24 7 2 314 270 289 302 314 317 309 302 298 296 307 328 339 276 295 290 287 188 192 193 197 203 208 213 218 225 230 235
58 45 41 32 9 9 12 16 345 319 270 212 213 288 333 349 348 351 341 332 315 328 354 306 304 294 267 198 196 201 213 217 220 220 221 225 230 242
79 65 53 37 23 27 21 8 337 315 314 315 303 286 280 325 356 335 317 324 325 333 345 335 324 330 308 286 196 202 222 232 234 235 233 234 238 241
60 59 50 39 40 33 26 1 318 310 305 302 308 316 326 351 23 18 357 318 312 306 332 347 337 339 312 306 288 257 233 232 218 234 228 229 239 236
47 54 48 36 34 26 19 351 345 343 335 344 349 343 350 355 350 358 37 325 224 224 278 0 345 334 319 311 309 313 300 267 199 197 228 229 234 236
52 56 42 25 15 21 15 360 1 2 350 347 353 352 349 343 341 352 358 343 313 8 47 15 7 325 308 306 307 315 326 339 30 43 28 270 263 238
61 50 27 13 1 359 22 23 22 10 355 354 357 353 355 359 1 356 348 344 2 357 12 17 15 3 335 336 340 347 357 345 352 17 19 355 329 329
11 33 47 49 45 37 34 30 25 15 7 1 358 353 353 357 354 355 358 352 349 351 355 359 17 35 29 2 352 354 351 345 2 11 350 347 346 349
59 57 43 33 28 25 24 24 32 23 8 7 5 356 351 352 349 351 2 3 353 349 350 1 16 5 352 20 17 358 351 343 347 343 333 347 340 342
59 56 46 37 29 24 21 21 20 15 0 2 4 353 346 347 354 356 356 357 355 354 356 7 17 13 351 342 347 356 341 331 341 350 347 345 330 323
54 53 47 40 33 26 22 17 13 11 0 351 353 348 349 349 352 351 356 359 353 354 7 21 19 3 339 320 310 322 345 350 346 337 330 328 328 328
55 51 45 40 34 28 18 8 8 7 359 353 357 351 348 352 356 355 2 5 356 357 3 359 339 315 307 316 325 334 348 349 334 309 309 312 317 308
49 47 43 43 36 25 15 7 9 11 6 5 358 351 352 354 353 358 359 351 352 358 351 344 341 334 339 347 339 337 339 328 326 333 326 312 302 290
49 45 42 39 33 24 19 16 17 12 4 358 354 348 347 348 349 356 354 349 350 354 353 350 342 332 338 338 330 332 333 321 319 334 328 316 300 282